#timestamp,LO_Frequency,Hit,StdDev 
1637326815.1,286046997.7,N
1637326816.0,286046997.7,N
1637326835.8,286046997.2,N
1637326855.7,286046996.5,N
1637326875.5,286046999.6,N
1637326895.3,286046998.4,N
1637326915.2,286047000.2,N
1637326935.0,286047000.2,N
1637326935.9,286047000.2,N
1637326955.8,286047001.2,N
1637326975.6,286047000.9,N
1637326995.4,286047000.3,N
1637327015.3,286046999.7,N
1637327035.1,286047000.4,N
1637327055.9,286046998.2,N
1637327075.7,286046998.4,N
1637327095.5,286046996.5,N
1637327115.4,286046999.5,N
1637327135.2,286046999.2,N
1637327155.0,286046999.5,N
1637327155.9,286046999.5,N
1637327175.8,286046998.6,N
1637327195.6,286046999.1,N
1637327215.5,286046999.1,N
1637327235.3,286046999.1,N
1637327255.1,286046999.1,N
1637327275.9,286046996.6,N
1637327295.7,286046999.5,N
1637327315.5,286046996.9,N
1637327335.4,286046999.5,N
1637327355.2,286046999.6,N
1637327375.1,286046996.8,N
1637327376.0,286046996.8,N
1637327395.8,286046999.1,N
1637327415.6,286046998.6,N
1637327435.5,286047000.8,N
1637327455.3,286046998.1,N
1637327475.1,286046999.1,N
1637327495.9,286046998.9,N
1637327515.7,286046999.4,N
1637327535.6,286046999.5,N
1637327555.4,286046999.1,N
1637327575.2,286046996.6,Y
1637327595.1,286046997.4,P
1637327596.0,286046997.4,P
1637327615.8,286046996.5,P
1637327635.7,286047000.3,N
1637327655.5,286047007.2,Y
1637327675.3,286047011.0,P
1637327695.2,286047010.3,N
1637327715.0,286047006.8,N
1637327715.9,286047006.8,N
1637327735.8,286047005.0,N
1637327755.6,286047006.0,N
1637327775.4,286047005.8,N
1637327795.3,286047003.7,N
1637327815.1,286047004.4,N
1637327835.8,286047003.4,N
1637327855.7,286047003.9,N
1637327875.5,286047001.4,N
1637327895.4,286047004.3,N
1637327915.2,286047001.3,N
1637327935.0,286047004.1,N
1637327935.9,286047004.1,N
1637327955.8,286047004.3,N
1637327975.6,286047002.3,N
1637327995.4,286047002.4,N
1637328015.3,286047002.8,N
1637328035.1,286047001.0,N
1637328055.9,286046998.6,N
1637328075.7,286047000.8,N
1637328095.5,286046998.1,N
1637328115.4,286046999.9,N
1637328135.2,286047000.5,N
1637328155.1,286046999.3,N
1637328156.0,286046999.3,N
1637328175.8,286046998.8,N
1637328195.6,286046998.3,N
1637328215.5,286046998.3,N
1637328235.3,286046998.8,N
1637328255.2,286046999.1,N
1637328275.9,286046999.5,N
1637328295.7,286046996.5,N
1637328315.6,286046999.1,N
1637328335.4,286046998.5,N
1637328355.2,286046999.6,N
1637328375.1,286046997.1,N
1637328376.0,286046997.1,N
1637328395.8,286046997.0,N
1637328415.7,286046996.8,N
1637328435.5,286046997.4,N
1637328455.3,286046997.7,N
1637328475.2,286046996.7,N
1637328495.0,286046994.9,N
1637328495.9,286046994.9,N
1637328515.8,286046996.2,N
1637328535.6,286046993.6,Y
1637328555.4,286046995.0,P
1637328575.3,286046998.0,N
1637328595.1,286046995.6,N
1637328615.9,286046997.7,N
1637328635.7,286046999.5,N
1637328655.5,286046998.8,N
1637328675.4,286046998.1,N
1637328695.2,286047000.8,N
1637328715.0,286046998.4,N
1637328715.9,286046998.4,N
1637328735.8,286046997.4,N
1637328755.6,286046997.6,N
1637328775.5,286046997.5,N
1637328795.3,286046997.8,N
1637328815.1,286046997.6,N
1637328835.9,286046997.5,N
1637328855.7,286046997.7,N
1637328875.5,286046997.7,N
1637328895.4,286046996.7,N
1637328915.2,286046996.5,N
1637328935.0,286046998.8,N
1637328936.0,286046998.8,N
1637328955.8,286046998.7,N
1637328975.6,286046998.8,N
1637328995.5,286046999.5,N
1637329015.3,286046997.0,N
1637329035.1,286046997.1,N
1637329055.9,286046999.2,N
1637329075.7,286046998.5,N
1637329095.6,286046998.4,N
1637329115.4,286046999.5,N
1637329135.2,286046999.0,N
1637329155.1,286046999.5,N
1637329156.0,286046999.5,N
1637329175.8,286046999.1,N
1637329195.6,286046998.4,N
1637329215.5,286046996.6,Y
1637329235.3,286046999.5,P
1637329255.2,286046998.0,P
1637329275.9,286046996.6,P
1637329295.7,286046999.1,N
1637329315.6,286046996.5,Y
1637329335.4,286046998.5,P
1637329355.3,286046998.2,P
1637329375.1,286047000.7,P
1637329376.0,286047000.7,N
1637329395.8,286046998.2,N
1637329415.7,286046998.9,N
1637329435.5,286047000.9,N
1637329455.3,286046998.6,N
1637329475.2,286047000.7,N
1637329495.0,286047001.1,N
1637329495.9,286047001.1,N
1637329515.8,286047001.0,N
1637329535.6,286046998.9,N
1637329555.4,286046998.9,N
1637329575.3,286046998.8,N
1637329595.1,286046999.1,N
1637329615.8,286046999.0,N
1637329635.7,286046997.0,N
1637329655.5,286046997.4,N
1637329675.4,286046997.9,N
1637329695.2,286046995.1,Y
1637329715.0,286046996.2,P
1637329715.9,286046996.2,N
1637329735.8,286046995.9,N
1637329755.6,286046996.2,N
1637329775.5,286046996.0,Y
1637329795.3,286046998.5,P
1637329815.1,286047000.3,N
1637329835.9,286047000.4,N
1637329855.7,286046998.2,N
1637329875.5,286046998.6,N
1637329895.4,286046998.7,N
1637329915.2,286046996.5,Y
1637329935.1,286047001.2,P
1637329936.0,286047001.2,N
1637329955.8,286046996.5,P
1637329975.6,286046996.5,N
1637329995.5,286046998.5,N
1637330015.3,286047002.3,N
1637330035.1,286047002.8,N
1637330055.9,286047004.4,N
1637330075.7,286047003.7,N
1637330095.6,286047001.7,N
1637330115.4,286047001.5,N
1637330135.2,286047002.1,N
1637330155.1,286047002.7,N
1637330156.0,286047002.7,N
1637330175.8,286047004.1,N
1637330195.6,286047005.7,N
1637330215.5,286047005.3,N
1637330235.3,286047007.6,N
1637330255.2,286047006.4,N
1637330275.0,286047007.6,N
1637330275.9,286047007.6,N
1637330295.7,286047007.3,N
1637330315.6,286047009.1,N
1637330335.4,286047006.9,N
1637330355.3,286047004.7,N
1637330375.1,286047004.5,N
1637330395.9,286047005.3,N
